Regional Weather Roundup
Issued by NWS

Home | Current Version | Previous Version | Text Only | Print | Product List | Glossary On
Versions: 1 2 3 4 5 6 7 8 9 10 11 12 13 14 15 16 17 18 19 20 21 22 23 24 25 26 27 28 29 30 31 32 33 34 35 36 37 38 39 40 41 42 43 44 45 46 47 48 49 50
000
ASUS43 KBIS 261010
RWRND
NORTH DAKOTA REGIONAL WEATHER ROUNDUP
NATIONAL WEATHER SERVICE EASTERN NORTH DAKOTA/GRAND FORKS ND
500 AM CDT SAT MAY 26 2018

  NOTE: "FAIR" INDICATES FEW OR NO CLOUDS BELOW 12,000 FEET WITH NO
  SIGNIFICANT WEATHER AND/OR OBSTRUCTIONS TO VISIBILITY.

NDZ001>003-009>011-017-261100-
...NORTHWEST NORTH DAKOTA...

CITY           SKY/WX    TMP DP  RH WIND       PRES   REMARKS
WILLISTON      FAIR      57  49  74 CALM      29.74S
MINOT          FAIR      60  48  64 SW9       29.71R
MINOT AFB      NOT AVBL
$$

NDZ018>021-031>035-040>046-261100-
...SOUTHWEST NORTH DAKOTA...

CITY           SKY/WX    TMP DP  RH WIND       PRES   REMARKS
BISMARCK       FAIR      61  51  70 SW5       29.76R
DICKINSON      FAIR      54  48  80 W8        29.79S
GARRISON         N/A     54  46  74 CALM      29.74R
HETTINGER      FAIR      46  42  86 CALM      29.84R
$$

NDZ004>008-012>016-024-026-027-054-261100-
...NORTHEAST NORTH DAKOTA...

CITY           SKY/WX    TMP DP  RH WIND       PRES   REMARKS
GRAND FORKS    FAIR      58  51  78 SW9       29.61S
GRAND FORKS AF FAIR      59  51  75 SW7       29.62S
DEVILS LAKE    FAIR      60  52  74 W8        29.68R
$$

NDZ022-023-025-028>030-036>039-047>053-261100-
...SOUTHEAST NORTH DAKOTA...

CITY           SKY/WX    TMP DP  RH WIND       PRES   REMARKS
JAMESTOWN      FAIR      61  53  75 W8        29.70R
FARGO          FAIR      61  51  70 SW6       29.65R
WAHPETON       FAIR      61  46  59 W5        29.68R
$$



USA.gov is the U.S. government's official web portal to all federal, state and local government web resources and services.